FENGYUN 1C DEB, 30388

Orbit data source: Space-Track

FENGYUN 1C DEB, 30388 is space debris in SSO originally from a launch on Mon, 10 May 1999 UTC launched from the Taiyaun Space Center, China (TSC). Fengyun 1C debris stems from the Chinese weather satellite Fengyun-1C, which was intentionally destroyed by a Chinese anti-satellite missile in 2007. This event dramatically increased the amount of space debris, with thousands of trackable fragments posing hazards to satellites and human spaceflight. The Fengyun 1C debris cloud has become a focal point in discussions about space sustainability and the need for international regulations to prevent the creation of new debris.

Loading next visibility...
Identifier
30388, 1999-025ADB
Orbit
SSO
Country
Flag of CNCN / PRC
Related business
Manufacturer
Unknown
Mission
Spacecraft
Bus & Motor
Unknown
Mass
Unknown
Launch date (UTC)
1999-05-10 (27 years ago)
Launch vehicle
Unknown
Launch site
Taiyaun Space Center, China (TSC)
Object type
Payload
Rocket body
Debris
Shape & HBR
Unknown shape, 0.1 m
Radar Cross Section
Medium (>0.1 m² and <1 m²)

Expand to show TLE details & history
Last TLE update: 5 hours ago

TLE from 5 hours ago
0 FENGYUN 1C DEB
1 30388U 99025ADB 26208.55263531  .00001381  00000-0  52100-3 0  9999
2 30388  98.5842 227.8772 0220936 126.0723  24.2001 14.20309196  6479
Epoch: 2026-07-27T13:15Z
TLE epoch observation values (Epoch: 2026-07-27T13:15:47.690Z)
Latitude
28.35926°
Longitude
-91.65769°
Altitude
683.239 km
Speed
7.593 km/s
True Right ascension
03h 30m 06s
True Declination
28° 12' 51"
Sunlit
Object was in daylight at epoch
Visualization orbit readout
Latitude
Unknown
Longitude
Unknown
Altitude
Unknown
Speed
Unknown
Apparent Right ascension
Unknown
Apparent Declination
Unknown
Sunlit
N/A
Visualization observer readout
Local Sidereal Time
07:10:12
Azimuth
Unknown
Elevation
Unknown
Doppler factor
Unknown
Orbital elements
Apogee altitude
980.522 km
Perigee altitude
662.392 km
Semi-major axis
7,199.594 km
Eccentricity
0.02209
Inclination
98.5842°
RAAN
227.8772°
Arg. of periapsis
126.0723°
True anomaly
25.26465°
Mean anomaly
24.2001°
Eccentric anomaly
24.72966°
Mean motion
3.55288 °/min
Orbital period
101.33 mins
BSTAR
0.000521
Loading maneuver chart data...
Computing Atmospheric mass density...

Documentation

Showing up to 5 results
|